sat.trackr.live / text

‹ back to catalog

STARLINK-6120

NORAD 56131 · 2023-046AR

PAYLOAD ACTIVE UNKNOWN

§ Identity

Operator
Country
US
Launch date
2023-03-29
Launch site
AFETR
Launch vehicle
Mass (kg)
RCS (m²)

Purposes: comms

External: N2YO · Heavens-Above · Gunter

§ Orbital elements

Epoch: 2026-09-19T23:31:13.268352Z

Period
94.27 min
Inclination
43.0026°
Eccentricity
0.0001375
Mean motion
15.27576831 rev/d
Perigee alt
482.1 km
Apogee alt
484.0 km
Semi-major
6,861.2 km
B*
1.1796e-5
RAAN
129.7887°
Arg perigee
254.9962°
Mean anomaly
105.0737°
Rev number
19,191

§ Raw data

STARLINK-61201 56131U 23046AR  26262.98001468  .00000062  00000+0  11796-4 0  99902 56131  43.0026 129.7887 0001375 254.9962 105.0737 15.27576831191917

JSON: /api/v1/satellites/56131 · /tle

For live sub-satellite position, see the globe view (requires WebGL).

§ Visibility from observer

Set your observer location to see the next 7 days of passes ≥ 10°. The values pass through the URL so the page stays shareable.

No JS? Fill the form by hand. The geolocation button needs JavaScript.